| time (UTC) | temp C | wind direction | speed KPH | gust KPH | rain 1hr cm | rain 24hr cm | rain mn cm | humidity % | barometer mb |
| 20260906184710 | 18 | 42 | 0.0 | 0.0 | 0.00 | 0.00 | 0.00 | 64 | 1025.4 |
| 20260906184209 | 18 | 42 | 0.0 | 0.0 | 0.00 | 0.00 | 0.00 | 64 | 1025.4 |
| 20260906183721 | 19 | 44 | 0.0 | 0.0 | 0.00 | 0.00 | 0.00 | 64 | 1025.4 |
| 20260906183229 | 19 | 44 | 0.0 | 0.0 | 0.00 | 0.00 | 0.00 | 62 | 1025.3 |
| 20260906182716 | 19 | 45 | 0.0 | 0.0 | 0.00 | 0.00 | 0.00 | 62 | 1025.2 |
| 20260906182227 | 19 | 45 | 0.0 | 0.0 | 0.00 | 0.00 | 0.00 | 63 | 1025.2 |
| 20260906181714 | 20 | 45 | 0.0 | 0.0 | 0.00 | 0.00 | 0.00 | 63 | 1025.1 |
| 20260906181225 | 20 | 45 | 0.0 | 0.0 | 0.00 | 0.00 | 0.00 | 64 | 1025.1 |
| 20260906180729 | 20 | 342 | 0.0 | 0.0 | 0.00 | 0.00 | 0.00 | 62 | 1025.0 |
| 20260906180221 | 20 | 329 | 0.0 | 0.0 | 0.00 | 0.00 | 0.00 | 61 | 1025.0 |
| 20260906175721 | 20 | 329 | 0.0 | 0.0 | 0.00 | 0.00 | 0.00 | 62 | 1025.0 |
| 20260906175228 | 20 | 329 | 0.0 | 0.0 | 0.00 | 0.00 | 0.00 | 62 | 1025.0 |
| 20260906174721 | 20 | 329 | 0.0 | 0.0 | 0.00 | 0.00 | 0.00 | 61 | 1025.0 |
| 20260906174221 | 20 | 323 | 0.0 | 0.0 | 0.00 | 0.00 | 0.00 | 61 | 1025.0 |
| 20260906173726 | 20 | 63 | 0.0 | 0.0 | 0.00 | 0.00 | 0.00 | 60 | 1024.9 |
| 20260906173214 | 20 | 309 | 0.0 | 0.0 | 0.00 | 0.00 | 0.00 | 59 | 1024.9 |
| 20260906172727 | 21 | 328 | 0.0 | 0.0 | 0.00 | 0.00 | 0.00 | 58 | 1024.9 |
| 20260906172231 | 21 | 307 | 0.0 | 0.0 | 0.00 | 0.00 | 0.00 | 57 | 1024.9 |
| 20260906171728 | 21 | 319 | 0.0 | 0.0 | 0.00 | 0.00 | 0.00 | 55 | 1024.9 |
| 20260906171230 | 21 | 323 | 0.0 | 0.0 | 0.00 | 0.00 | 0.00 | 55 | 1024.9 |
| 20260906170725 | 22 | 5 | 0.0 | 1.6 | 0.00 | 0.00 | 0.00 | 54 | 1024.8 |
| 20260906170209 | 22 | 348 | 0.0 | 1.6 | 0.00 | 0.00 | 0.00 | 53 | 1024.9 |
| 20260906165720 | 22 | 340 | 0.0 | 1.6 | 0.00 | 0.00 | 0.00 | 52 | 1024.8 |
| 20260906165224 | 22 | 345 | 0.0 | 0.0 | 0.00 | 0.00 | 0.00 | 51 | 1024.8 |
| 20260906164709 | 23 | 333 | 0.0 | 6.4 | 0.00 | 0.00 | 0.00 | 50 | 1024.7 |
| 20260906164218 | 23 | 325 | 0.0 | 6.4 | 0.00 | 0.00 | 0.00 | 50 | 1024.7 |
| 20260906163720 | 24 | 295 | 3.2 | 8.0 | 0.00 | 0.00 | 0.00 | 46 | 1024.6 |
| 20260906162717 | 25 | 327 | 1.6 | 8.0 | 0.00 | 0.00 | 0.00 | 45 | 1024.7 |
| 20260906161727 | 25 | 323 | 1.6 | 6.4 | 0.00 | 0.00 | 0.00 | 45 | 1024.7 |
| 20260906161207 | 25 | 320 | 1.6 | 6.4 | 0.00 | 0.00 | 0.00 | 45 | 1024.7 |
| 20260906160225 | 26 | 301 | 0.0 | 0.0 | 0.00 | 0.00 | 0.00 | 44 | 1024.6 |
| 20260906155718 | 26 | 322 | 0.0 | 0.0 | 0.00 | 0.00 | 0.00 | 45 | 1024.7 |
| 20260906155226 | 26 | 313 | 0.0 | 0.0 | 0.00 | 0.00 | 0.00 | 43 | 1024.8 |
| 20260906154221 | 26 | 269 | 0.0 | 0.0 | 0.00 | 0.00 | 0.00 | 40 | 1024.8 |
| 20260906153721 | 26 | 306 | 0.0 | 0.0 | 0.00 | 0.00 | 0.00 | 41 | 1024.8 |
| 20260906153210 | 26 | 296 | 0.0 | 3.2 | 0.00 | 0.00 | 0.00 | 41 | 1024.8 |
| 20260906152752 | 26 | 235 | 0.0 | 4.8 | 0.00 | 0.00 | 0.00 | 40 | 1024.8 |
| 20260906152224 | 26 | 221 | 0.0 | 9.7 | 0.00 | 0.00 | 0.00 | 39 | 1024.8 |
| 20260906151228 | 26 | 154 | 1.6 | 9.7 | 0.00 | 0.00 | 0.00 | 36 | 1025.0 |
| 20260906150713 | 26 | 191 | 1.6 | 8.0 | 0.00 | 0.00 | 0.00 | 36 | 1025.0 |
| 20260906150230 | 26 | 223 | 1.6 | 8.0 | 0.00 | 0.00 | 0.00 | 36 | 1025.0 |
| 20260906145725 | 27 | 163 | 0.0 | 8.0 | 0.00 | 0.00 | 0.00 | 37 | 1025.0 |
| 20260906144229 | 27 | 198 | 0.0 | 6.4 | 0.00 | 0.00 | 0.00 | 36 | 1025.0 |
| 20260906143237 | 27 | 320 | 0.0 | 6.4 | 0.00 | 0.00 | 0.00 | 36 | 1025.0 |
| 20260906142724 | 27 | 193 | 0.0 | 6.4 | 0.00 | 0.00 | 0.00 | 35 | 1025.0 |
| 20260906142213 | 27 | 188 | 0.0 | 3.2 | 0.00 | 0.00 | 0.00 | 37 | 1025.0 |
| 20260906141723 | 27 | 181 | 0.0 | 6.4 | 0.00 | 0.00 | 0.00 | 36 | 1025.1 |
| 20260906140727 | 26 | 312 | 0.0 | 8.0 | 0.00 | 0.00 | 0.00 | 37 | 1025.1 |
| 20260906140233 | 26 | 185 | 1.6 | 8.0 | 0.00 | 0.00 | 0.00 | 37 | 1025.2 |
| 20260906135228 | 26 | 178 | 0.0 | 6.4 | 0.00 | 0.00 | 0.00 | 37 | 1025.2 |
| 20260906134715 | 27 | 189 | 0.0 | 1.6 | 0.00 | 0.00 | 0.00 | 36 | 1025.3 |
| 20260906134220 | 27 | 201 | 0.0 | 3.2 | 0.00 | 0.00 | 0.00 | 38 | 1025.3 |
| 20260906133216 | 26 | 348 | 0.0 | 8.0 | 0.00 | 0.00 | 0.00 | 39 | 1025.3 |
| 20260906132717 | 26 | 252 | 0.0 | 8.0 | 0.00 | 0.00 | 0.00 | 36 | 1025.3 |
| 20260906132220 | 26 | 196 | 0.0 | 6.4 | 0.00 | 0.00 | 0.00 | 38 | 1025.3 |
| 20260906131214 | 26 | 158 | 1.6 | 9.7 | 0.00 | 0.00 | 0.00 | 39 | 1025.4 |
| 20260906130721 | 26 | 263 | 1.6 | 12.9 | 0.00 | 0.00 | 0.00 | 42 | 1025.7 |
| 20260906130217 | 26 | 170 | 1.6 | 12.9 | 0.00 | 0.00 | 0.00 | 39 | 1025.5 |
| 20260906125720 | 26 | 194 | 1.6 | 12.9 | 0.00 | 0.00 | 0.00 | 42 | 1025.7 |
| 20260906125218 | 26 | 233 | 1.6 | 11.3 | 0.00 | 0.00 | 0.00 | 41 | 1025.7 |
| 20260906124724 | 26 | 140 | 1.6 | 11.3 | 0.00 | 0.00 | 0.00 | 40 | 1025.8 |
| 20260906124218 | 26 | 195 | 1.6 | 14.5 | 0.00 | 0.00 | 0.00 | 39 | 1025.8 |
| 20260906123725 | 26 | 212 | 1.6 | 14.5 | 0.00 | 0.00 | 0.00 | 41 | 1025.8 |
| 20260906122718 | 26 | 234 | 4.8 | 16.1 | 0.00 | 0.00 | 0.00 | 41 | 1026.0 |
| 20260906122208 | 26 | 140 | 4.8 | 16.1 | 0.00 | 0.00 | 0.00 | 40 | 1026.0 |
| 20260906121715 | 26 | 160 | 1.6 | 12.9 | 0.00 | 0.00 | 0.00 | 41 | 1025.9 |
| 20260906121215 | 26 | 155 | 1.6 | 11.3 | 0.00 | 0.00 | 0.00 | 38 | 1025.9 |
| 20260906120715 | 26 | 134 | 1.6 | 11.3 | 0.00 | 0.00 | 0.00 | 39 | 1026.0 |
| 20260906120215 | 26 | 124 | 0.0 | 8.0 | 0.00 | 0.00 | 0.00 | 39 | 1025.9 |
| 20260906115728 | 25 | 207 | 1.6 | 8.0 | 0.00 | 0.00 | 0.00 | 39 | 1025.9 |
| 20260906115219 | 25 | 194 | 1.6 | 11.3 | 0.00 | 0.00 | 0.00 | 40 | 1026.0 |
| 20260906114722 | 25 | 210 | 1.6 | 11.3 | 0.00 | 0.00 | 0.00 | 39 | 1026.1 |
| 20260906113711 | 25 | 138 | 1.6 | 9.7 | 0.00 | 0.00 | 0.00 | 38 | 1026.1 |
| 20260906113221 | 25 | 165 | 1.6 | 9.7 | 0.00 | 0.00 | 0.00 | 39 | 1026.1 |
| 20260906112711 | 25 | 144 | 1.6 | 9.7 | 0.00 | 0.00 | 0.00 | 41 | 1026.1 |
| 20260906112220 | 25 | 233 | 0.0 | 12.9 | 0.00 | 0.00 | 0.00 | 40 | 1026.2 |
| 20260906111218 | 25 | 169 | 1.6 | 12.9 | 0.00 | 0.00 | 0.00 | 42 | 1026.2 |
| 20260906110724 | 25 | 219 | 1.6 | 11.3 | 0.00 | 0.00 | 0.00 | 43 | 1026.2 |
| 20260906110228 | 24 | 323 | 3.2 | 11.3 | 0.00 | 0.03 | 0.00 | 43 | 1026.2 |
| 20260906105710 | 24 | 159 | 3.2 | 11.3 | 0.00 | 0.03 | 0.00 | 43 | 1026.2 |
| 20260906105209 | 24 | 171 | 1.6 | 11.3 | 0.00 | 0.03 | 0.00 | 43 | 1026.3 |
| 20260906103713 | 24 | 162 | 1.6 | 8.0 | 0.00 | 0.03 | 0.00 | 46 | 1026.5 |
| 20260906103216 | 23 | 161 | 1.6 | 9.7 | 0.00 | 0.03 | 0.00 | 45 | 1026.5 |
| 20260906102727 | 23 | 135 | 1.6 | 9.7 | 0.00 | 0.03 | 0.00 | 46 | 1026.5 |
| 20260906102220 | 23 | 170 | 3.2 | 11.3 | 0.00 | 0.03 | 0.00 | 48 | 1026.5 |
| 20260906101739 | 23 | 179 | 3.2 | 11.3 | 0.00 | 0.03 | 0.00 | 47 | 1026.5 |
| 20260906100713 | 23 | 144 | 1.6 | 8.0 | 0.00 | 0.03 | 0.00 | 48 | 1026.6 |
| 20260906100252 | 23 | 198 | 1.6 | 9.7 | 0.00 | 0.03 | 0.00 | 49 | 1026.7 |
| 20260906095726 | 23 | 71 | 1.6 | 9.7 | 0.00 | 0.03 | 0.00 | 50 | 1026.8 |
| 20260906095206 | 23 | 164 | 1.6 | 9.7 | 0.00 | 0.03 | 0.00 | 50 | 1026.8 |
| 20260906094220 | 22 | 188 | 1.6 | 9.7 | 0.00 | 0.03 | 0.00 | 50 | 1026.8 |
| 20260906093713 | 23 | 174 | 0.0 | 6.4 | 0.00 | 0.03 | 0.00 | 49 | 1026.8 |
| 20260906093222 | 22 | 161 | 0.0 | 6.4 | 0.00 | 0.03 | 0.00 | 51 | 1027.0 |
| 20260906092727 | 22 | 153 | 0.0 | 0.0 | 0.00 | 0.03 | 0.00 | 47 | 1027.0 |
| 20260906092219 | 22 | 301 | 0.0 | 0.0 | 0.00 | 0.03 | 0.00 | 48 | 1027.0 |
| 20260906091707 | 22 | 148 | 0.0 | 1.6 | 0.00 | 0.03 | 0.00 | 50 | 1027.0 |
| 20260906091221 | 22 | 157 | 0.0 | 4.8 | 0.00 | 0.03 | 0.00 | 50 | 1027.0 |
| 20260906090724 | 21 | 154 | 0.0 | 4.8 | 0.00 | 0.03 | 0.00 | 49 | 1027.1 |
| 20260906090227 | 21 | 175 | 0.0 | 4.8 | 0.00 | 0.03 | 0.00 | 51 | 1027.1 |
| 20260906085708 | 21 | 181 | 0.0 | 6.4 | 0.00 | 0.03 | 0.00 | 51 | 1027.1 |
| 20260906085211 | 21 | 181 | 0.0 | 8.0 | 0.00 | 0.03 | 0.00 | 50 | 1027.0 |
| 20260906084723 | 21 | 171 | 1.6 | 8.0 | 0.00 | 0.03 | 0.00 | 51 | 1027.0 |
| 20260906084222 | 21 | 172 | 1.6 | 8.0 | 0.00 | 0.03 | 0.00 | 52 | 1027.1 |
| 20260906083714 | 20 | 173 | 3.2 | 8.0 | 0.00 | 0.03 | 0.00 | 53 | 1027.1 |
| 20260906082706 | 20 | 186 | 1.6 | 8.0 | 0.00 | 0.03 | 0.00 | 55 | 1027.1 |
| 20260906082212 | 20 | 175 | 1.6 | 8.0 | 0.00 | 0.03 | 0.00 | 54 | 1027.2 |
| 20260906081712 | 20 | 180 | 0.0 | 0.0 | 0.00 | 0.03 | 0.00 | 56 | 1027.2 |
| 20260906081225 | 20 | 178 | 0.0 | 0.0 | 0.00 | 0.03 | 0.00 | 58 | 1027.3 |
| 20260906080719 | 19 | 180 | 0.0 | 0.0 | 0.00 | 0.03 | 0.00 | 57 | 1027.3 |
| 20260906080221 | 19 | 169 | 0.0 | 0.0 | 0.00 | 0.03 | 0.00 | 58 | 1027.3 |
| 20260906075712 | 19 | 155 | 0.0 | 0.0 | 0.00 | 0.03 | 0.00 | 61 | 1027.2 |
| 20260906075230 | 18 | 148 | 0.0 | 0.0 | 0.00 | 0.03 | 0.00 | 61 | 1027.3 |
| 20260906074208 | 18 | 126 | 0.0 | 0.0 | 0.00 | 0.03 | 0.00 | 65 | 1027.2 |
| 20260906073222 | 17 | 126 | 0.0 | 0.0 | 0.00 | 0.05 | 0.00 | 71 | 1027.2 |
| 20260906072720 | 17 | 126 | 0.0 | 0.0 | 0.00 | 0.10 | 0.00 | 72 | 1027.2 |
| 20260906072215 | 16 | 126 | 0.0 | 0.0 | 0.00 | 0.13 | 0.00 | 72 | 1027.2 |
| 20260906071723 | 16 | 126 | 0.0 | 0.0 | 0.00 | 0.13 | 0.00 | 77 | 1027.2 |
| 20260906071228 | 15 | 126 | 0.0 | 0.0 | 0.00 | 0.13 | 0.00 | 76 | 1027.2 |
| 20260906070744 | 15 | 126 | 0.0 | 0.0 | 0.00 | 0.13 | 0.00 | 82 | 1027.3 |
| 20260906070216 | 15 | 126 | 0.0 | 0.0 | 0.00 | 0.13 | 0.00 | 84 | 1027.2 |
| 20260906065725 | 14 | 126 | 0.0 | 0.0 | 0.00 | 0.13 | 0.00 | 85 | 1027.2 |
| 20260906065213 | 13 | 126 | 0.0 | 0.0 | 0.00 | 0.13 | 0.00 | 85 | 1027.3 |
| 20260906064726 | 13 | 126 | 0.0 | 0.0 | 0.00 | 0.13 | 0.00 | 86 | 1027.3 |
| 20260906064213 | 12 | 126 | 0.0 | 0.0 | 0.00 | 0.13 | 0.00 | 88 | 1027.3 |
| 20260906063716 | 12 | 126 | 0.0 | 0.0 | 0.00 | 0.13 | 0.00 | 90 | 1027.4 |
| 20260906062726 | 11 | 126 | 0.0 | 0.0 | 0.00 | 0.13 | 0.00 | 91 | 1027.4 |
| 20260906062216 | 11 | 126 | 0.0 | 0.0 | 0.00 | 0.13 | 0.00 | 90 | 1027.4 |
| 20260906061722 | 11 | 126 | 0.0 | 0.0 | 0.00 | 0.13 | 0.00 | 90 | 1027.4 |
| 20260906061215 | 11 | 126 | 0.0 | 0.0 | 0.00 | 0.13 | 0.00 | 89 | 1027.4 |
| 20260906060724 | 11 | 126 | 0.0 | 0.0 | 0.00 | 0.13 | 0.00 | 90 | 1027.4 |
| 20260906060229 | 11 | 126 | 0.0 | 0.0 | 0.00 | 0.13 | 0.00 | 89 | 1027.3 |
| 20260906055711 | 11 | 126 | 0.0 | 0.0 | 0.00 | 0.13 | 0.00 | 89 | 1027.3 |
| 20260906055220 | 11 | 126 | 0.0 | 0.0 | 0.00 | 0.13 | 0.00 | 90 | 1027.3 |
| 20260906054718 | 11 | 126 | 0.0 | 0.0 | 0.00 | 0.13 | 0.00 | 90 | 1027.2 |
| 20260906054209 | 11 | 126 | 0.0 | 0.0 | 0.00 | 0.13 | 0.00 | 89 | 1027.2 |
| 20260906053224 | 11 | 126 | 0.0 | 1.6 | 0.00 | 0.13 | 0.00 | 89 | 1027.3 |
| 20260906052728 | 11 | 96 | 0.0 | 8.0 | 0.00 | 0.13 | 0.00 | 90 | 1027.3 |
| 20260906052221 | 11 | 13 | 0.0 | 8.0 | 0.00 | 0.13 | 0.00 | 90 | 1027.3 |
| 20260906051740 | 11 | 13 | 0.0 | 4.8 | 0.00 | 0.13 | 0.00 | 90 | 1027.1 |
| 20260906051219 | 11 | 5 | 0.0 | 0.0 | 0.00 | 0.13 | 0.00 | 90 | 1027.0 |
| 20260906050717 | 11 | 5 | 0.0 | 0.0 | 0.00 | 0.13 | 0.00 | 89 | 1027.0 |
| 20260906050232 | 11 | 117 | 0.0 | 0.0 | 0.00 | 0.13 | 0.00 | 89 | 1027.0 |
| 20260906045716 | 11 | 117 | 0.0 | 0.0 | 0.00 | 0.13 | 0.00 | 89 | 1027.0 |
| 20260906045222 | 11 | 15 | 0.0 | 0.0 | 0.00 | 0.13 | 0.00 | 89 | 1027.0 |
| 20260906044731 | 11 | 15 | 0.0 | 0.0 | 0.00 | 0.13 | 0.00 | 89 | 1027.1 |
| 20260906044215 | 11 | 15 | 0.0 | 0.0 | 0.00 | 0.13 | 0.00 | 89 | 1027.1 |
| 20260906043728 | 11 | 15 | 0.0 | 0.0 | 0.00 | 0.13 | 0.00 | 89 | 1027.1 |
| 20260906043217 | 11 | 15 | 0.0 | 0.0 | 0.00 | 0.13 | 0.00 | 89 | 1027.1 |
| 20260906042725 | 11 | 15 | 0.0 | 0.0 | 0.00 | 0.13 | 0.00 | 89 | 1027.0 |
| 20260906042215 | 11 | 15 | 0.0 | 0.0 | 0.00 | 0.13 | 0.00 | 89 | 1027.0 |
| 20260906041749 | 11 | 15 | 0.0 | 0.0 | 0.00 | 0.13 | 0.00 | 89 | 1027.0 |
| 20260906041301 | 11 | 15 | 0.0 | 0.0 | 0.00 | 0.13 | 0.00 | 88 | 1027.0 |
| 20260906040719 | 11 | 15 | 0.0 | 0.0 | 0.00 | 0.15 | 0.00 | 88 | 1026.8 |
| 20260906040236 | 11 | 15 | 0.0 | 0.0 | 0.00 | 0.15 | 0.00 | 88 | 1027.0 |
| 20260906035711 | 11 | 15 | 0.0 | 0.0 | 0.00 | 0.15 | 0.00 | 88 | 1027.1 |
| 20260906035222 | 11 | 15 | 0.0 | 0.0 | 0.00 | 0.15 | 0.00 | 88 | 1027.0 |
| 20260906034723 | 11 | 15 | 0.0 | 0.0 | 0.00 | 0.15 | 0.00 | 88 | 1027.0 |
| 20260906034216 | 11 | 15 | 0.0 | 0.0 | 0.00 | 0.15 | 0.00 | 88 | 1027.1 |
| 20260906033715 | 11 | 15 | 0.0 | 0.0 | 0.00 | 0.15 | 0.00 | 88 | 1027.0 |
| 20260906033219 | 11 | 15 | 0.0 | 0.0 | 0.00 | 0.15 | 0.00 | 88 | 1027.1 |
| 20260906032209 | 11 | 15 | 0.0 | 0.0 | 0.00 | 0.15 | 0.00 | 88 | 1027.1 |
| 20260906031220 | 11 | 15 | 0.0 | 0.0 | 0.00 | 0.15 | 0.00 | 88 | 1027.3 |
| 20260906030725 | 11 | 20 | 0.0 | 0.0 | 0.00 | 0.15 | 0.00 | 88 | 1027.3 |
| 20260906025719 | 11 | 31 | 0.0 | 0.0 | 0.00 | 0.15 | 0.00 | 88 | 1027.4 |
| 20260906025217 | 11 | 28 | 0.0 | 0.0 | 0.00 | 0.15 | 0.00 | 88 | 1027.4 |
| 20260906024721 | 11 | 28 | 0.0 | 0.0 | 0.00 | 0.15 | 0.00 | 88 | 1027.4 |
| 20260906024223 | 11 | 28 | 0.0 | 0.0 | 0.00 | 0.15 | 0.00 | 88 | 1027.3 |
| 20260906023709 | 11 | 28 | 0.0 | 0.0 | 0.00 | 0.15 | 0.00 | 88 | 1027.4 |
| 20260906023226 | 11 | 28 | 0.0 | 0.0 | 0.00 | 0.15 | 0.00 | 88 | 1027.4 |
| 20260906022730 | 11 | 20 | 0.0 | 0.0 | 0.00 | 0.15 | 0.00 | 88 | 1027.4 |
| 20260906022233 | 11 | 20 | 0.0 | 0.0 | 0.00 | 0.15 | 0.00 | 88 | 1027.3 |
| 20260906021718 | 11 | 20 | 0.0 | 0.0 | 0.00 | 0.15 | 0.00 | 88 | 1027.3 |
| 20260906020727 | 11 | 25 | 0.0 | 0.0 | 0.00 | 0.15 | 0.00 | 88 | 1027.1 |
| 20260906020227 | 11 | 148 | 0.0 | 0.0 | 0.00 | 0.15 | 0.00 | 88 | 1027.1 |
| 20260906015226 | 11 | 123 | 0.0 | 0.0 | 0.00 | 0.15 | 0.00 | 88 | 1027.1 |
| 20260906014715 | 11 | 133 | 0.0 | 0.0 | 0.00 | 0.15 | 0.00 | 88 | 1027.0 |
| 20260906014220 | 11 | 133 | 0.0 | 0.0 | 0.00 | 0.15 | 0.00 | 88 | 1027.0 |
| 20260906013725 | 11 | 133 | 0.0 | 0.0 | 0.00 | 0.15 | 0.00 | 88 | 1027.1 |
| 20260906013220 | 11 | 133 | 0.0 | 0.0 | 0.00 | 0.15 | 0.00 | 88 | 1027.1 |
| 20260906012211 | 11 | 98 | 0.0 | 0.0 | 0.00 | 0.15 | 0.00 | 87 | 1027.0 |
| 20260906011220 | 11 | 113 | 0.0 | 0.0 | 0.00 | 0.15 | 0.00 | 87 | 1027.1 |
| 20260906010229 | 12 | 113 | 0.0 | 0.0 | 0.00 | 0.15 | 0.00 | 87 | 1027.3 |
| 20260906005709 | 12 | 113 | 0.0 | 0.0 | 0.00 | 0.15 | 0.00 | 86 | 1027.4 |
| 20260906005217 | 12 | 113 | 0.0 | 0.0 | 0.00 | 0.15 | 0.00 | 87 | 1027.4 |
| 20260906004725 | 12 | 116 | 0.0 | 0.0 | 0.00 | 0.15 | 0.00 | 86 | 1027.4 |
| 20260906003212 | 12 | 116 | 0.0 | 0.0 | 0.00 | 0.15 | 0.00 | 86 | 1027.4 |
| 20260906002725 | 12 | 116 | 0.0 | 0.0 | 0.00 | 0.15 | 0.00 | 86 | 1027.4 |
| 20260906002229 | 12 | 116 | 0.0 | 0.0 | 0.00 | 0.15 | 0.00 | 86 | 1027.5 |
| 20260906001745 | 12 | 116 | 0.0 | 0.0 | 0.00 | 0.15 | 0.00 | 85 | 1027.5 |
| 20260906001215 | 12 | 116 | 0.0 | 0.0 | 0.00 | 0.15 | 0.00 | 85 | 1027.5 |
| 20260906000219 | 12 | 118 | 0.0 | 3.2 | 0.00 | 0.15 | 0.00 | 85 | 1027.5 |
| 20260905235722 | 12 | 118 | 0.0 | 0.0 | 0.00 | 0.15 | 0.00 | 85 | 1027.6 |
| 20260905235222 | 12 | 18 | 0.0 | 0.0 | 0.00 | 0.15 | 0.00 | 85 | 1027.6 |
| 20260905234717 | 12 | 5 | 0.0 | 0.0 | 0.00 | 0.15 | 0.00 | 85 | 1027.6 |
| 20260905234219 | 12 | 333 | 0.0 | 14.5 | 0.00 | 0.15 | 0.00 | 85 | 1027.6 |
| 20260905233719 | 12 | 346 | 1.6 | 14.5 | 0.00 | 0.15 | 0.00 | 84 | 1027.6 |
| 20260905232729 | 12 | 343 | 0.0 | 0.0 | 0.00 | 0.15 | 0.00 | 85 | 1027.6 |
| 20260905232218 | 12 | 61 | 0.0 | 0.0 | 0.00 | 0.15 | 0.00 | 85 | 1027.7 |
| 20260905231726 | 12 | 78 | 0.0 | 0.0 | 0.00 | 0.15 | 0.00 | 85 | 1027.7 |
| 20260905230738 | 12 | 34 | 0.0 | 0.0 | 0.00 | 0.15 | 0.00 | 84 | 1027.7 |
| 20260905230221 | 12 | 25 | 0.0 | 0.0 | 0.00 | 0.15 | 0.00 | 85 | 1027.7 |
| 20260905225710 | 12 | 25 | 0.0 | 0.0 | 0.00 | 0.15 | 0.00 | 85 | 1027.6 |
| 20260905225221 | 12 | 53 | 0.0 | 0.0 | 0.00 | 0.15 | 0.00 | 85 | 1027.6 |
| 20260905224714 | 12 | 132 | 0.0 | 0.0 | 0.00 | 0.15 | 0.00 | 85 | 1027.6 |
| 20260905224218 | 12 | 22 | 0.0 | 0.0 | 0.00 | 0.15 | 0.00 | 84 | 1027.7 |
| 20260905223727 | 12 | 22 | 0.0 | 0.0 | 0.00 | 0.15 | 0.00 | 84 | 1027.7 |
| 20260905222720 | 12 | 22 | 0.0 | 0.0 | 0.00 | 0.15 | 0.00 | 84 | 1027.7 |
| 20260905222223 | 12 | 45 | 0.0 | 0.0 | 0.00 | 0.15 | 0.00 | 83 | 1027.8 |
| 20260905221731 | 12 | 45 | 0.0 | 0.0 | 0.00 | 0.15 | 0.00 | 83 | 1027.9 |
| 20260905221215 | 13 | 45 | 0.0 | 0.0 | 0.00 | 0.15 | 0.00 | 83 | 1027.8 |
| 20260905220727 | 13 | 45 | 0.0 | 0.0 | 0.00 | 0.15 | 0.00 | 82 | 1027.8 |
| 20260905215719 | 13 | 47 | 0.0 | 0.0 | 0.00 | 0.15 | 0.15 | 81 | 1027.7 |
| 20260905215209 | 13 | 47 | 0.0 | 0.0 | 0.00 | 0.15 | 0.15 | 82 | 1027.8 |
| 20260905214712 | 13 | 47 | 0.0 | 0.0 | 0.00 | 0.15 | 0.15 | 81 | 1027.8 |
| 20260905213717 | 12 | 355 | 0.0 | 0.0 | 0.00 | 0.15 | 0.15 | 82 | 1027.7 |
| 20260905213226 | 12 | 355 | 0.0 | 0.0 | 0.00 | 0.15 | 0.15 | 81 | 1027.8 |
| 20260905212725 | 13 | 60 | 0.0 | 0.0 | 0.00 | 0.15 | 0.15 | 81 | 1027.7 |
| 20260905212222 | 13 | 263 | 0.0 | 0.0 | 0.00 | 0.15 | 0.15 | 81 | 1027.7 |
| 20260905211720 | 13 | 55 | 0.0 | 0.0 | 0.00 | 0.15 | 0.15 | 80 | 1027.7 |
| 20260905210722 | 13 | 55 | 0.0 | 0.0 | 0.00 | 0.15 | 0.15 | 80 | 1027.7 |
| 20260905210215 | 13 | 55 | 0.0 | 0.0 | 0.00 | 0.15 | 0.15 | 80 | 1027.7 |
| 20260905205719 | 13 | 55 | 0.0 | 0.0 | 0.00 | 0.15 | 0.15 | 79 | 1027.7 |
| 20260905204729 | 13 | 55 | 0.0 | 0.0 | 0.00 | 0.15 | 0.15 | 79 | 1027.7 |
| 20260905204212 | 13 | 55 | 0.0 | 0.0 | 0.00 | 0.15 | 0.15 | 78 | 1027.7 |
| 20260905203718 | 13 | 55 | 0.0 | 0.0 | 0.00 | 0.15 | 0.15 | 78 | 1027.7 |
| 20260905203216 | 13 | 55 | 0.0 | 0.0 | 0.00 | 0.15 | 0.15 | 78 | 1027.7 |
| 20260905202724 | 13 | 55 | 0.0 | 0.0 | 0.00 | 0.15 | 0.15 | 78 | 1027.7 |
| 20260905202224 | 13 | 33 | 0.0 | 0.0 | 0.00 | 0.15 | 0.15 | 77 | 1027.6 |
| 20260905201708 | 13 | 33 | 0.0 | 0.0 | 0.00 | 0.15 | 0.15 | 77 | 1027.5 |
| 20260905201221 | 13 | 32 | 0.0 | 0.0 | 0.00 | 0.15 | 0.15 | 77 | 1027.4 |
| 20260905200722 | 14 | 33 | 0.0 | 0.0 | 0.00 | 0.15 | 0.15 | 77 | 1027.4 |
| 20260905200227 | 14 | 33 | 0.0 | 0.0 | 0.00 | 0.15 | 0.15 | 76 | 1027.4 |
| 20260905195718 | 14 | 33 | 0.0 | 0.0 | 0.00 | 0.15 | 0.15 | 76 | 1027.4 |
| 20260905195223 | 14 | 27 | 0.0 | 0.0 | 0.00 | 0.15 | 0.15 | 76 | 1027.4 |
| 20260905194714 | 14 | 27 | 0.0 | 0.0 | 0.00 | 0.15 | 0.15 | 75 | 1027.4 |
| 20260905194219 | 14 | 27 | 0.0 | 0.0 | 0.00 | 0.15 | 0.15 | 75 | 1027.3 |
| 20260905193227 | 15 | 27 | 0.0 | 0.0 | 0.00 | 0.15 | 0.15 | 74 | 1027.1 |
| 20260905192717 | 15 | 27 | 0.0 | 0.0 | 0.00 | 0.15 | 0.15 | 74 | 1027.0 |
| 20260905192216 | 15 | 27 | 0.0 | 0.0 | 0.00 | 0.15 | 0.15 | 73 | 1027.0 |
| 20260905191223 | 15 | 27 | 0.0 | 0.0 | 0.00 | 0.15 | 0.15 | 73 | 1027.1 |
| 20260905190717 | 15 | 0 | 0.0 | 0.0 | 0.00 | 0.15 | 0.15 | 73 | 1027.0 |
| 20260905190224 | 15 | 0 | 0.0 | 0.0 | 0.00 | 0.15 | 0.15 | 72 | 1026.8 |
| 20260905185215 | 16 | 0 | 0.0 | 0.0 | 0.00 | 0.15 | 0.15 | 71 | 1026.8 |